Torna al catalogo

INTELSAT 33E

AttivoComunicazioniGEO
NORAD 41748·PAYLOAD· XX

Lanciato Aug 24, 2016 da Guiana Space Centre

Loading…

TLE

AggiornatoSource: Space-Track

Epoca: Sep 14, 2026, 13:55 UTC

1 41748U 16053B   26257.58004103  .00000130  00000-0  00000-0 0  9996
2 41748   1.8005  82.8782 0023666 190.7406 313.6530  1.00223155 37140

Traccia INTELSAT 33E in tempo reale con AllMySat

Download on the App Store